星链-31567 (STARLINK-31567 )

导读

STARLINK-31567是美国SpaceX星链互联网卫星星座的一员,于2024年3月10日发射入轨,旨在为全球提供低延迟、高速率的卫星宽带互联网服务,尤其覆盖地面基础设施难以覆盖的偏远区域。该卫星延续星链标准设计,依托星座组网推进全球卫星互联网覆盖布局,是星链扩容计划的组成部分。

基本信息
目录编号:
59199
目录名称:
STARLINK-31567
国际标识:
2024-045X
轨道中心:
EARTH
卫星名称:
星链-31567
卫星全名:
星链-31567 (STARLINK-31567 )
卫星状态:
在轨 (已飞行908 天)
发射日期:
2024-03-10 UTC
国别 :
美国 (US)
星等 :
--
轨道信息
数据来源 国际轨道数据 AOE轨道数据
星历时间 2026-09-04T11:10:48+0800
8小时前
查看轨道信息
2026-09-03T23:00:00+0800
20小时前
查看轨道信息
半长轴 6861.209km 6861.175km
偏心率 0.0000816 0.0001071
轨道倾角 42.999° 43.000°
近地点辐角 282.390° 250.195°
升交点赤经 164.637° 167.505°
平近点角 77.686° 195.695°
近地点 482.512km 482.303km
远地点 483.632km 483.773km
周期 94.267分钟 94.267分钟
每日圈数 15.275724 15.275838
详细信息
固有亮度:
5
最大亮度:
0.3
卫星平台:
Starlink v2.0 mini
覆盖范围:
全球
运营商:
太空探索技术公司
运营商所在国:
美国
制造商(研发单位):
太空探索技术公司
制造商所在国:
美国
使用方式:
暂无
卫星简介
星链(Starlink)计划是由太空探索技术公司(SpaceX)提出的一个巨型低轨卫星互联网星座项目,计划在2019年至2024年间在太空搭建由约1.2万颗卫星组成的“星链”网络,其中1584颗将部署在地球上空550千米处的近地轨道,并从2020年开始工作。该卫星仍在工作。
2D轨道图
3D轨道图
轨道高度分析图
轨道倾角分析图
轨道综合分析图
查看轨道综合分析图
交会数据列表
事件ID 空间交会对象 最接近时刻(TCA) 交会距离 交会风险概率(CRP) 交会风险指数(CRI) 操作
CDM_260904-223705-717305-919922
OBJECT H (57173)
2026-09-04T
22:37:09+0000
0.363 km
远距离
3.727437E-4 高风险 0.86
CDM_260904-042905-919906-382221
2026-09-04T
04:29:19+0000
1.212 km
极远距离
7.790306E-6 低风险 0.53
CDM_260904-060305-919906-382221
2026-09-04T
06:03:28+0000
1.523 km
极远距离
3.664239E-6 低风险 0.46
CDM_260904-130705-919906-382221
2026-09-04T
13:07:09+0000
1.549 km
极远距离
3.477207E-6 低风险 0.46
CDM_260904-144105-919906-382221
2026-09-04T
14:41:18+0000
1.934 km
极远距离
1.858408E-6 低风险 0.4
CDM_260903-180705-919906-469922
2026-09-03T
18:07:00+0000
2.442 km
极远距离
1.172487E-6 低风险 0.36